N4CHT-2 Weather Reports


time (UTC)temp
F
wind
direction
speed
knots
gust
knots
rain 1hr
in
rain 24hr
in
rain mn
in
humidity
%
barometer
mb
20220124102752 30 309 0.0 0.0 0.00 0.00 0.00
20220124102252 31 309 0.0 0.0 0.00 0.00 0.00
20220124102021 31 214 0.0 0.0 0.00 0.00 0.00
20220124101746 31 214 0.0 0.0 0.00 0.00 0.00
20220124101244 31 232 2.6 0.9 0.00 0.00 0.00
20220124100950 31 233 3.5 2.6 0.00 0.00 0.00
20220124100745 31 233 3.5 2.6 0.00 0.00 0.00
20220124100242 31 264 4.3 5.2 0.00 0.00 0.00
20220124100000 31 249 5.2 3.5 0.00 0.00 0.00
20220124095743 31 249 5.2 3.5 0.00 0.00 0.00
20220124095243 31 274 4.3 3.5 0.00 0.00 0.00
20220124095125 32 250 5.2 5.2 0.00 0.00 0.00
20220124094739 32 250 5.2 5.2 0.00 0.00 0.00
20220124094237 31 260 3.5 0.9 0.00 0.00 0.00
20220124094044 31 248 3.5 1.7 0.00 0.00 0.00
20220124093738 31 248 3.5 1.7 0.00 0.00 0.00
20220124093230 31 293 2.6 0.0 0.00 0.00 0.00
20220124092730 31 305 0.9 3.5 0.00 0.00 0.00
20220124091728 32 293 5.2 2.6 0.00 0.00 0.00
20220124091614 32 300 4.3 5.2 0.00 0.00 0.00
20220124091226 32 300 4.3 5.2 0.00 0.00 0.00
20220124090727 32 291 4.3 5.2 0.00 0.00 0.00
20220124090224 32 284 6.1 9.6 0.00 0.00 0.00
20220124085930 32 256 7.8 7.0 0.00 0.00 0.00
20220124085724 32 256 7.8 7.0 0.00 0.00 0.00
20220124085224 33 259 6.1 5.2 0.00 0.00 0.00
20220124085035 33 253 7.8 7.8 0.00 0.00 0.00
20220124084720 33 253 7.8 7.8 0.00 0.00 0.00
20220124084457 33 280 5.2 6.1 0.00 0.00 0.00
20220124084220 33 280 5.2 6.1 0.00 0.00 0.00
20220124083721 33 232 7.0 3.5 0.00 0.00 0.00
20220124083602 33 253 2.6 4.3 0.00 0.00 0.00
20220124083216 33 253 2.6 4.3 0.00 0.00 0.00
20220124082716 32 172 0.0 0.0 0.00 0.00 0.00
20220124082216 33 172 0.0 0.0 0.00 0.00 0.00
20220124081714 33 172 0.0 0.0 0.00 0.00 0.00
20220124081457 32 172 0.0 0.0 0.00 0.00 0.00
20220124081215 32 172 0.0 0.0 0.00 0.00 0.00
20220124080715 32 172 0.0 0.0 0.00 0.00 0.00
20220124080212 32 172 0.0 0.0 0.00 0.00 0.00
20220124075713 32 172 0.0 0.0 0.00 0.00 0.00
20220124075510 32 172 0.0 0.0 0.00 0.00 0.00
20220124075213 32 172 0.0 0.0 0.00 0.00 0.00
20220124074708 33 172 0.0 0.0 0.00 0.00 0.00
20220124074208 33 172 0.0 0.0 0.00 0.00 0.00
20220124073842 33 172 0.0 0.0 0.00 0.00 0.00
20220124073708 33 172 0.0 0.0 0.00 0.00 0.00
20220124073436 33 172 0.0 0.0 0.00 0.00 0.00
20220124073205 33 172 0.0 0.0 0.00 0.00 0.00
20220124072705 32 172 0.0 0.0 0.00 0.00 0.00
20220124072206 33 172 0.0 0.0 0.00 0.00 0.00
20220124071703 33 172 0.0 0.0 0.00 0.00 0.00
20220124071203 33 248 0.0 0.0 0.00 0.00 0.00
20220124070701 33 248 0.0 0.0 0.00 0.00 0.00
20220124070159 33 186 0.0 0.0 0.00 0.00 0.00
20220124065700 33 186 0.0 0.0 0.00 0.00 0.00
20220124065200 33 186 0.0 0.0 0.00 0.00 0.00
20220124064658 33 186 0.0 0.0 0.00 0.00 0.00
20220124064158 33 186 0.0 0.0 0.00 0.00 0.00
20220124063659 32 186 0.0 0.0 0.00 0.00 0.00
20220124063155 33 186 0.0 0.0 0.00 0.00 0.00
20220124062655 33 186 0.0 0.0 0.00 0.00 0.00
20220124062450 33 186 0.0 0.0 0.00 0.00 0.00
20220124062153 33 186 0.0 0.0 0.00 0.00 0.00
20220124061902 34 186 0.0 0.0 0.00 0.00 0.00
20220124061647 34 186 0.0 0.0 0.00 0.00 0.00
20220124061148 34 190 0.0 0.0 0.00 0.00 0.00
20220124060648 34 190 0.0 0.0 0.00 0.00 0.00
20220124060146 34 190 0.9 0.9 0.00 0.00 0.00
20220124055646 35 211 0.0 0.0 0.00 0.00 0.00
20220124055146 35 176 2.6 2.6 0.00 0.00 0.00
20220124054946 35 187 3.5 2.6 0.00 0.00 0.00
20220124054639 35 187 3.5 2.6 0.00 0.00 0.00
20220124054502 35 236 1.7 6.1 0.00 0.00 0.00
20220124054138 35 236 1.7 6.1 0.00 0.00 0.00
20220124053639 34 255 2.6 4.3 0.00 0.00 0.00
20220124053137 33 238 0.0 0.9 0.00 0.00 0.00
20220124052637 32 276 0.0 0.0 0.00 0.00 0.00
20220124052432 31 276 0.0 0.0 0.00 0.00 0.00
20220124052138 31 276 0.0 0.0 0.00 0.00 0.00
20220124051634 32 276 0.0 0.0 0.00 0.00 0.00
20220124051132 32 276 0.0 0.0 0.00 0.00 0.00
20220124050942 33 276 0.0 0.0 0.00 0.00 0.00
20220124050632 33 276 0.0 0.0 0.00 0.00 0.00
20220124050125 31 23 0.0 0.0 0.00 0.00 0.00
20220124045919 30 142 0.0 0.0 0.00 0.00 0.00
20220124045626 30 142 0.0 0.0 0.00 0.00 0.00
20220124045125 31 142 0.0 0.0 0.00 0.00 0.00
20220124044920 30 142 0.0 0.0 0.00 0.00 0.00
20220124044621 30 142 0.0 0.0 0.00 0.00 0.00
20220124043621 32 142 0.0 0.0 0.00 0.00 0.00
20220124043410 32 142 0.0 0.0 0.00 0.00 0.00
20220124043118 32 142 0.0 0.0 0.00 0.00 0.00
20220124042618 31 142 0.0 0.0 0.00 0.00 0.00
20220124042118 31 142 0.0 0.0 0.00 0.00 0.00
20220124041615 32 142 0.0 0.0 0.00 0.00 0.00
20220124041116 32 142 0.0 0.0 0.00 0.00 0.00
20220124040827 32 142 0.0 0.0 0.00 0.00 0.00
20220124040616 32 142 0.0 0.0 0.00 0.00 0.00
20220124040114 32 142 0.0 0.0 0.00 0.00 0.00
20220124035613 32 142 0.0 0.0 0.00 0.00 0.00
20220124035113 33 142 0.0 0.0 0.00 0.00 0.00
20220124034819 35 142 0.0 0.0 0.00 0.00 0.00
20220124034609 35 142 0.0 0.0 0.00 0.00 0.00
20220124034421 35 180 0.0 0.0 0.00 0.00 0.00
20220124034110 35 180 0.0 0.0 0.00 0.00 0.00
20220124033608 34 243 1.7 3.5 0.00 0.00 0.00
20220124033416 34 226 0.9 1.7 0.00 0.00 0.00
20220124033105 34 226 0.9 1.7 0.00 0.00 0.00
20220124032921 34 240 2.6 2.6 0.00 0.00 0.00
20220124032604 34 240 2.6 2.6 0.00 0.00 0.00
20220124032105 34 219 2.6 3.5 0.00 0.00 0.00
20220124031601 32 187 0.0 0.0 0.00 0.00 0.00
20220124031417 30 187 0.0 0.0 0.00 0.00 0.00
20220124031103 30 187 0.0 0.0 0.00 0.00 0.00
20220124030856 31 187 0.0 0.0 0.00 0.00 0.00
20220124030602 31 187 0.0 0.0 0.00 0.00 0.00
20220124030057 31 187 0.0 0.0 0.00 0.00 0.00
20220124025557 32 187 0.0 0.0 0.00 0.00 0.00
20220124025500 31 187 0.0 0.0 0.00 0.00 0.00
20220124025058 31 187 0.0 0.0 0.00 0.00 0.00
20220124024555 31 187 0.0 0.0 0.00 0.00 0.00
20220124024308 30 187 0.0 0.0 0.00 0.00 0.00
20220124024054 30 187 0.0 0.0 0.00 0.00 0.00
20220124023052 31 187 0.0 0.0 0.00 0.00 0.00
20220124022552 31 187 0.0 0.0 0.00 0.00 0.00
20220124022052 31 187 0.0 0.0 0.00 0.00 0.00
20220124021749 31 187 0.0 0.0 0.00 0.00 0.00
20220124021547 31 187 0.0 0.0 0.00 0.00 0.00
20220124021048 32 187 0.0 0.0 0.00 0.00 0.00
20220124020546 32 187 0.0 0.0 0.00 0.00 0.00
20220124020044 32 187 0.0 0.0 0.00 0.00 0.00
20220124015544 31 145 0.0 0.0 0.00 0.00 0.00
20220124015045 31 145 0.0 0.0 0.00 0.00 0.00
20220124014924 32 145 0.0 0.0 0.00 0.00 0.00
20220124014541 32 145 0.0 0.0 0.00 0.00 0.00
20220124014041 31 145 0.0 0.0 0.00 0.00 0.00
20220124013538 32 145 0.0 0.0 0.00 0.00 0.00
20220124013351 32 145 0.0 0.0 0.00 0.00 0.00
20220124013034 32 145 0.0 0.0 0.00 0.00 0.00
20220124012535 32 145 0.0 0.0 0.00 0.00 0.00
20220124012035 33 145 0.0 0.0 0.00 0.00 0.00
20220124011533 33 145 0.0 0.0 0.00 0.00 0.00
20220124011034 33 145 0.0 0.0 0.00 0.00 0.00
20220124010533 33 145 0.0 0.0 0.00 0.00 0.00
20220124010031 33 145 0.0 0.0 0.00 0.00 0.00
20220124005532 33 145 0.0 0.0 0.00 0.00 0.00
20220124004529 33 145 0.0 0.0 0.00 0.00 0.00
20220124004030 33 145 0.0 0.0 0.00 0.00 0.00
20220124003530 33 145 0.0 0.0 0.00 0.00 0.00
20220124003026 33 145 0.0 0.0 0.00 0.00 0.00
20220124002526 33 145 0.0 0.0 0.00 0.00 0.00
20220124002027 33 145 0.0 0.0 0.00 0.00 0.00
20220124001521 33 145 0.0 0.0 0.00 0.00 0.00
20220124001021 33 145 0.0 0.0 0.00 0.00 0.00
20220124000018 33 145 0.0 0.0 0.00 0.00 0.00
20220123235753 33 145 0.0 0.0 0.00 0.00 0.00
20220123235518 33 145 0.0 0.0 0.00 0.00 0.00
20220123235250 33 145 0.0 0.0 0.00 0.00 0.00
20220123235019 33 145 0.0 0.0 0.00 0.00 0.00
20220123234515 34 145 0.0 0.0 0.00 0.00 0.00
20220123234252 33 145 0.0 0.0 0.00 0.00 0.00
20220123234015 33 145 0.0 0.0 0.00 0.00 0.00
20220123233512 33 145 0.0 0.0 0.00 0.00 0.00
20220123233007 33 145 0.0 0.0 0.00 0.00 0.00
20220123232841 33 145 0.0 0.0 0.00 0.00 0.00
20220123232508 33 145 0.0 0.0 0.00 0.00 0.00
20220123232248 33 145 0.0 0.0 0.00 0.00 0.00
20220123232008 33 145 0.0 0.0 0.00 0.00 0.00
20220123231827 33 145 0.0 0.0 0.00 0.00 0.00
20220123231502 33 145 0.0 0.0 0.00 0.00 0.00
20220123231002 33 145 0.0 0.0 0.00 0.00 0.00
20220123230459 33 145 0.0 0.0 0.00 0.00 0.00
20220123225955 32 145 0.0 0.0 0.00 0.00 0.00
20220123225748 33 145 0.0 0.0 0.00 0.00 0.00
20220123225455 33 145 0.0 0.0 0.00 0.00 0.00
20220123224732 33 145 0.0 0.0 0.00 0.00 0.00
20220123224452 33 145 0.0 0.0 0.00 0.00 0.00
20220123223952 33 145 0.0 0.0 0.00 0.00 0.00
20220123223743 33 145 0.0 0.0 0.00 0.00 0.00
20220123223452 33 145 0.0 0.0 0.00 0.00 0.00
20220123223255 33 145 0.0 0.0 0.00 0.00 0.00
20220123222945 33 145 0.0 0.0 0.00 0.00 0.00
20220123222800 33 145 0.0 0.0 0.00 0.00 0.00
20220123222445 33 145 0.0 0.0 0.00 0.00 0.00
20220123222209 33 145 0.0 0.0 0.00 0.00 0.00
20220123221945 33 145 0.0 0.0 0.00 0.00 0.00
20220123221439 33 145 0.0 0.0 0.00 0.00 0.00
20220123220940 33 145 0.0 0.0 0.00 0.00 0.00
20220123220440 34 145 0.0 0.0 0.00 0.00 0.00
20220123215937 34 145 0.0 0.0 0.00 0.00 0.00
20220123215436 35 145 0.0 0.0 0.00 0.00 0.00
20220123214935 36 145 0.0 0.0 0.00 0.00 0.00
20220123214432 36 145 0.0 0.0 0.00 0.00 0.00
20220123213432 37 145 0.0 0.0 0.00 0.00 0.00
20220123212924 37 145 0.0 0.0 0.00 0.00 0.00
20220123212424 37 145 0.0 0.0 0.00 0.00 0.00
20220123211924 38 145 0.0 0.0 0.00 0.00 0.00
20220123211421 38 145 0.0 0.0 0.00 0.00 0.00
20220123211212 38 145 0.0 0.0 0.00 0.00 0.00
20220123210922 38 145 0.0 0.0 0.00 0.00 0.00
20220123210422 38 145 0.0 0.0 0.00 0.00 0.00
20220123210132 38 145 0.0 0.0 0.00 0.00 0.00
20220123205913 38 145 0.0 0.0 0.00 0.00 0.00
20220123205414 38 145 0.0 0.0 0.00 0.00 0.00
20220123204914 38 145 0.0 0.0 0.00 0.00 0.00
20220123204722 37 145 0.0 0.0 0.00 0.00 0.00
20220123204411 37 145 0.0 0.0 0.00 0.00 0.00
20220123203911 37 145 0.0 0.0 0.00 0.00 0.00
20220123203412 37 145 0.0 0.0 0.00 0.00 0.00
20220123203229 38 145 0.0 0.0 0.00 0.00 0.00
20220123202908 38 145 0.0 0.0 0.00 0.00 0.00
20220123202710 38 145 0.0 0.0 0.00 0.00 0.00
20220123202408 38 145 0.0 0.0 0.00 0.00 0.00
20220123202233 38 145 0.0 0.0 0.00 0.00 0.00
20220123201906 38 145 0.0 0.0 0.00 0.00 0.00
20220123201630 38 145 0.0 0.0 0.00 0.00 0.00
20220123201403 38 145 0.0 0.0 0.00 0.00 0.00
20220123200904 38 145 0.0 0.0 0.00 0.00 0.00
20220123200637 38 145 0.0 0.0 0.00 0.00 0.00
20220123200404 38 145 0.0 0.0 0.00 0.00 0.00
20220123200059 39 145 0.0 0.0 0.00 0.00 0.00
20220123195859 39 145 0.0 0.0 0.00 0.00 0.00
20220123195355 39 145 0.0 0.0 0.00 0.00 0.00
20220123195236 40 145 0.0 0.0 0.00 0.00 0.00
20220123194855 40 145 0.0 0.0 0.00 0.00 0.00
20220123194643 41 145 0.0 0.0 0.00 0.00 0.00
20220123194347 41 145 0.0 0.0 0.00 0.00 0.00
20220123194129 41 145 0.0 0.0 0.00 0.00 0.00
20220123193848 41 145 0.0 0.0 0.00 0.00 0.00
20220123193348 42 145 0.0 0.0 0.00 0.00 0.00
20220123193254 42 145 0.0 0.0 0.00 0.00 0.00
20220123192844 42 145 0.0 0.0 0.00 0.00 0.00
20220123192628 40 145 0.0 0.0 0.00 0.00 0.00
20220123192344 40 145 0.0 0.0 0.00 0.00 0.00
20220123192110 40 145 0.0 0.0 0.00 0.00 0.00
20220123191845 40 145 0.0 0.0 0.00 0.00 0.00
20220123191342 39 145 0.0 0.0 0.00 0.00 0.00
20220123190843 39 145 0.0 0.0 0.00 0.00 0.00
20220123190630 38 143 3.5 1.7 0.00 0.00 0.00
20220123190343 38 143 3.5 1.7 0.00 0.00 0.00
20220123190107 38 128 3.5 1.7 0.00 0.00 0.00
20220123185839 38 128 3.5 1.7 0.00 0.00 0.00
20220123185639 40 136 0.0 0.0 0.00 0.00 0.00
20220123185339 40 136 0.0 0.0 0.00 0.00 0.00
20220123184838 41 136 0.0 0.0 0.00 0.00 0.00
20220123184334 42 136 0.0 0.0 0.00 0.00 0.00
20220123183835 42 136 0.0 0.0 0.00 0.00 0.00
20220123183658 40 136 1.7 0.0 0.00 0.00 0.00
20220123183335 40 136 1.7 0.0 0.00 0.00 0.00
20220123183115 42 118 0.0 0.0 0.00 0.00 0.00
20220123182832 42 118 0.0 0.0 0.00 0.00 0.00
20220123182708 42 118 0.0 0.0 0.00 0.00 0.00
20220123182331 42 118 0.0 0.0 0.00 0.00 0.00
20220123182131 42 118 0.0 0.0 0.00 0.00 0.00
20220123181823 42 118 0.0 0.0 0.00 0.00 0.00
20220123181320 42 118 0.0 0.0 0.00 0.00 0.00
20220123180815 41 118 0.0 0.0 0.00 0.00 0.00
20220123180315 41 118 0.0 0.0 0.00 0.00 0.00
20220123180115 43 136 0.0 0.0 0.00 0.00 0.00
20220123175810 43 136 0.0 0.0 0.00 0.00 0.00
20220123175310 42 136 0.0 0.0 0.00 0.00 0.00
20220123174810 41 110 1.7 1.7 0.00 0.00 0.00
20220123174308 41 118 1.7 2.6 0.00 0.00 0.00
20220123173809 41 94 0.0 0.0 0.00 0.00 0.00
20220123173308 42 100 0.0 1.7 0.00 0.00 0.00
20220123173028 41 70 0.0 0.0 0.00 0.00 0.00
20220123172805 41 70 0.0 0.0 0.00 0.00 0.00
20220123172116 42 98 1.7 2.6 0.00 0.00 0.00
20220123171805 42 98 1.7 2.6 0.00 0.00 0.00
20220123171301 41 115 0.0 1.7 0.00 0.00 0.00
20220123171048 43 94 0.0 0.0 0.00 0.00 0.00
20220123170801 43 94 0.0 0.0 0.00 0.00 0.00
20220123170302 39 104 2.6 2.6 0.00 0.00 0.00
20220123165759 38 87 2.6 1.7 0.00 0.00 0.00
20220123165444 39 98 0.0 0.0 0.00 0.00 0.00
20220123165257 39 98 0.0 0.0 0.00 0.00 0.00
20220123165025 38 98 0.0 0.0 0.00 0.00 0.00
20220123164752 38 98 0.0 0.0 0.00 0.00 0.00
20220123164249 39 98 0.0 0.0 0.00 0.00 0.00
20220123164058 39 98 0.0 0.0 0.00 0.00 0.00
20220123163750 39 98 0.0 0.0 0.00 0.00 0.00
20220123163250 40 124 0.0 2.6 0.00 0.00 0.00
20220123162748 40 80 2.6 1.7 0.00 0.00 0.00
20220123162248 41 55 0.0 0.0 0.00 0.00 0.00
20220123161747 40 73 0.0 0.0 0.00 0.00 0.00
20220123161245 40 32 0.9 4.3 0.00 0.00 0.00
20220123160744 40 113 0.0 3.5 0.00 0.00 0.00
20220123160245 39 107 0.9 0.0 0.00 0.00 0.00
20220123155959 41 46 0.0 0.9 0.00 0.00 0.00
20220123155741 41 46 0.0 0.9 0.00 0.00 0.00
20220123155238 41 46 0.0 0.0 0.00 0.00 0.00
20220123154229 38 46 0.0 0.0 0.00 0.00 0.00
20220123153728 36 46 0.9 0.0 0.00 0.00 0.00
20220123153227 35 176 0.0 0.0 0.00 0.00 0.00
20220123152721 34 176 0.0 0.0 0.00 0.00 0.00
20220123152222 33 176 0.0 0.0 0.00 0.00 0.00
20220123151722 37 176 0.0 0.0 0.00 0.00 0.00
20220123151219 35 176 0.0 0.0 0.00 0.00 0.00
20220123150904 36 176 0.0 0.0 0.00 0.00 0.00
20220123150720 36 176 0.0 0.0 0.00 0.00 0.00
20220123150220 36 176 0.0 0.0 0.00 0.00 0.00
20220123145715 34 176 0.0 0.0 0.00 0.00 0.00
20220123145215 33 176 0.0 0.0 0.00 0.00 0.00
20220123144715 36 176 0.0 0.0 0.00 0.00 0.00
20220123144404 34 176 0.0 0.0 0.00 0.00 0.00
20220123144210 34 176 0.0 0.0 0.00 0.00 0.00
20220123143711 33 176 0.0 0.0 0.00 0.00 0.00
20220123143508 35 176 0.0 0.0 0.00 0.00 0.00
20220123143432 35 176 0.0 0.0 0.00 0.00 0.00
20220123143211 35 176 0.0 0.0 0.00 0.00 0.00
20220123142848 34 176 0.0 0.0 0.00 0.00 0.00
20220123142706 34 176 0.0 0.0 0.00 0.00 0.00
20220123142433 29 176 0.0 0.0 0.00 0.00 0.00
20220123142206 29 176 0.0 0.0 0.00 0.00 0.00
20220123141849 32 176 0.0 0.0 0.00 0.00 0.00
20220123141706 32 176 0.0 0.0 0.00 0.00 0.00
20220123141201 28 176 0.0 0.0 0.00 0.00 0.00
20220123140829 21 176 0.0 0.0 0.00 0.00 0.00
20220123140657 21 176 0.0 0.0 0.00 0.00 0.00
20220123140414 21 176 0.0 0.0 0.00 0.00 0.00
20220123140157 21 176 0.0 0.0 0.00 0.00 0.00
20220123135839 21 176 0.0 0.0 0.00 0.00 0.00
20220123135653 21 176 0.0 0.0 0.00 0.00 0.00
20220123135153 21 176 0.0 0.0 0.00 0.00 0.00
20220123134820 21 176 0.0 0.0 0.00 0.00 0.00
20220123134653 21 176 0.0 0.0 0.00 0.00 0.00
20220123134409 23 176 0.0 0.0 0.00 0.00 0.00
20220123134148 23 176 0.0 0.0 0.00 0.00 0.00
20220123133648 24 176 0.0 0.0 0.00 0.00 0.00
20220123133147 23 176 0.0 0.0 0.00 0.00 0.00
20220123132816 21 176 0.0 0.0 0.00 0.00 0.00
20220123132643 21 176 0.0 0.0 0.00 0.00 0.00
20220123131946 21 176 0.0 0.0 0.00 0.00 0.00
20220123131642 21 176 0.0 0.0 0.00 0.00 0.00
20220123131139 21 176 0.0 0.0 0.00 0.00 0.00
20220123130640 21 176 0.0 0.0 0.00 0.00 0.00
20220123130424 21 176 0.0 0.0 0.00 0.00 0.00
20220123130125 21 176 0.0 0.0 0.00 0.00 0.00
20220123125756 21 176 0.0 0.0 0.00 0.00 0.00
20220123125620 21 176 0.0 0.0 0.00 0.00 0.00
20220123125119 20 176 0.0 0.0 0.00 0.00 0.00
20220123124756 20 176 0.0 0.0 0.00 0.00 0.00
20220123124619 20 176 0.0 0.0 0.00 0.00 0.00
20220123123344 17 176 0.0 0.0 0.00 0.00 0.00
20220123123111 17 176 0.0 0.0 0.00 0.00 0.00
20220123122737 17 176 0.0 0.0 0.00 0.00 0.00
20220123122608 17 176 0.0 0.0 0.00 0.00 0.00
20220123122248 17 176 0.0 0.0 0.00 0.00 0.00
20220123122106 17 176 0.0 0.0 0.00 0.00 0.00
20220123121255 16 176 0.0 0.0 0.00 0.00 0.00
20220123121102 16 176 0.0 0.0 0.00 0.00 0.00
20220123120740 16 176 0.0 0.0 0.00 0.00 0.00
20220123120602 16 176 0.0 0.0 0.00 0.00 0.00
20220123120244 17 176 0.0 0.0 0.00 0.00 0.00
20220123120059 17 176 0.0 0.0 0.00 0.00 0.00
20220123115332 17 176 0.0 0.0 0.00 0.00 0.00
20220123115057 17 176 0.0 0.0 0.00 0.00 0.00
20220123114734 16 176 0.0 0.0 0.00 0.00 0.00
20220123114557 16 176 0.0 0.0 0.00 0.00 0.00
20220123114230 16 176 0.0 0.0 0.00 0.00 0.00
20220123114052 16 176 0.0 0.0 0.00 0.00 0.00
20220123113747 17 176 0.0 0.0 0.00 0.00 0.00
20220123113552 17 176 0.0 0.0 0.00 0.00 0.00
20220123113316 18 176 0.0 0.0 0.00 0.00 0.00
20220123113050 18 176 0.0 0.0 0.00 0.00 0.00
20220123112254 19 176 0.0 0.0 0.00 0.00 0.00
20220123112048 19 176 0.0 0.0 0.00 0.00 0.00
20220123111253 19 176 0.0 0.0 0.00 0.00 0.00
20220123111043 19 176 0.0 0.0 0.00 0.00 0.00
20220123110314 19 176 0.0 0.0 0.00 0.00 0.00
20220123110035 19 176 0.0 0.0 0.00 0.00 0.00
20220123105255 18 176 0.0 0.0 0.00 0.00 0.00
20220123105033 18 176 0.0 0.0 0.00 0.00 0.00
20220123104730 19 176 0.0 0.0 0.00 0.00 0.00
20220123104534 19 176 0.0 0.0 0.00 0.00 0.00
20220123104247 19 176 0.0 0.0 0.00 0.00 0.00
20220123104030 19 176 0.0 0.0 0.00 0.00 0.00
20220123103703 19 176 0.0 0.0 0.00 0.00 0.00
20220123103530 19 176 0.0 0.0 0.00 0.00 0.00
20220123103222 18 176 0.0 0.0 0.00 0.00 0.00